Location: Cruquius
(52.3348°N, 4.6319°E)
Time: 22:30:35
(UTC+00:00)

Terra - Pass Details

Date: 12 May 2021
Orbit: 701 x 703 km, 98.2° (Epoch: 24 June)

Event Time Altitude Azimuth Distance (km) Brightness Sun altitude
Exits shadow 20:37:05 12° 131° (SE) 2,054 3.5 -9.2°
Maximum altitude 20:41:10 39° 65° (ENE) 1,061 2.6 -9.6°
Drops below altitude 10° 20:45:35 10° 358° (N) 2,185 5.2 -10.0°
Sets 20:47:58 0° 351° (N) 3,108 6.3 -10.3°
